星链-4401 (STARLINK-4401 )

导读 | 星芒AI

STARLINK-4401 是 SpaceX 星链计划中的一颗低轨通信卫星,属于第四批发射的星链卫星群。该卫星运行在约 550 公里的高度,旨在为全球用户提供高速互联网服务。作为星链网络的一部分,STARLINK-4401 采用先进通信技术,支持宽带数据传输,提升偏远地区的网络覆盖。其设计具备高可靠性和可操作性,有助于构建全球化的卫星互联网系统。

基本信息
目录编号:
53483
目录名称:
STARLINK-4401
国际标识:
2022-099U
轨道中心:
EARTH
卫星名称:
星链-4401
卫星全名:
星链-4401 (STARLINK-4401 )
卫星状态:
已陨落 最后检测时间 2025-10-07
发射日期:
2022-08-12 UTC
国别 :
美国 (US)
星等 :
--
轨道信息
数据来源 国际轨道数据
星历时间: 2025-10-07T05:25:30+0800
轨道信息已过期29天
半长轴: 6525.244km
偏心率: 0.0010034
轨道倾角: 97.632°
近地点辐角 281.038°
升交点赤经 51.389°
平近点角 78.979°
近地点: 140.561km
远地点: 153.657km
周期: 87.429分钟
每日圈数: 16.470535
详细信息
固有亮度:
5
最大亮度:
2.5
卫星平台:
Starlink v1.5
覆盖范围:
全球
运营商:
太空探索技术公司
运营商所在国:
美国
制造商(研发单位):
太空探索技术公司
制造商所在国:
美国
使用方式:
暂无
卫星简介
星链(Starlink)计划是由太空探索技术公司(SpaceX)提出的一个巨型低轨卫星互联网星座项目,计划在2019年至2024年间在太空搭建由约1.2万颗卫星组成的“星链”网络,其中1584颗将部署在地球上空550千米处的近地轨道,并从2020年开始工作。该卫星仍在工作。